Weather in Kiselevka

Russia / Khabarovsk Krai     51°24′36″N   139°00′33″E
temp.,
°C
wind,
m/s
gust,
m/s
humid.,
%
clouds,
%
prec.,
mm/h
press.,
hPa
HPBL,
m
1 march, mon
mon101:00−14sse1197100 1.3 101628
04:00−17w1294100 1.3 101720
07:00−19wsw229399 0.0 101929
10:00−17wsw497869 0.0 1020528
13:00−13wsw477573 0.0 10211251
16:00−13wsw577186 0.1 10201369
19:00−18wsw4127635 0.0 1022437
22:00−22sw238218 0.0 102358
2 march, tue
tue201:00−25wsw228722 0.0 102424
04:00−27w228736 0.0 102520
07:00−28w22848 0.0 102624
10:00−20sw398116 0.0 1026662
13:00−16wsw476914 0.0 10251092
16:00−15wsw466628 0.0 10241344
19:00−21wsw23847 0.0 102551
22:00−23w22934 0.0 102720
3 march, wed
wed301:00−25w22940 0.0 102520
04:00−27w22890 0.0 102622
07:00−28w22840 0.0 102624
10:00−20wsw310830 0.0 1025414
13:00−15sw510760 0.0 1022611
16:00−14sw512810 0.0 1020682
19:00−15sw4158459 0.0 1019749
22:00−17sw249179 0.0 1016155
4 march, thu
thu401:00−16sw2149394 0.0 1014426
04:00−15wsw3148876 0.0 1013380
07:00−17w2292100 0.0 101342
10:00−9wsw31281100 0.0 1013648
13:00−5sw378058 0.0 1011796
16:00−4sse148280 0.0 1010474
19:00−12ne3596100 0.8 1010239
22:00−13nne1397100 2.1 1010200
5 march, fri
fri501:00−14ne3895100 0.8 1009592
04:00−17ne3996100 1.1 1010543
07:00−18nne2697100 0.9 1012520
10:00−18ne1288100 1.3 1015622
13:00−16sse2288100 0.4 1016658
16:00−17e2292100 0.9 1017423
19:00−22se119998 0.3 101920
22:00−22w229199 0.3 102032